Regional Weather Roundup
Issued by NWS

Home | Current Version | Previous Version | Text Only | Print | Product List | Glossary Off
Versions: 1 2 3 4 5 6 7 8 9 10 11 12 13 14 15 16 17 18 19 20 21 22 23 24 25 26 27 28 29 30 31 32 33 34 35 36 37 38 39 40 41 42 43 44 45 46 47 48 49 50

000
ASUS43 KLSX 302059
RWRMO

WEATHER SUMMARY FOR MISSOURI
NATIONAL WEATHER SERVICE SPRINGFIELD MO
300 PM CST FRI JAN 30 2015

NOTE: "FAIR" INDICATES FEW OR NO CLOUDS BELOW 12,000 FEET WITH NO
       SIGNIFICANT WEATHER AND/OR OBSTRUCTIONS TO VISIBILITY.
       CURRENT SKY AND/OR WEATHER CONDITIONS ARE NOT AVAILABLE FOR
       CHILLICOTHE AND FARMINGTON.

MOZ001>031-035>038-043-044-053-054-302200-
...NORTHERN AND WESTERN MISSOURI...

CITY           SKY/WX    TMP DP  RH WIND       PRES   REMARKS
KANSAS CTY INT CLOUDY    38  19  46 VRB3      30.44F
KANSAS C DTWN  PTSUNNY   42  17  36 S3        30.45F
LEE`S SUMMIT   MOSUNNY   40  17  39 CALM      30.44F
ST JOSEPH      PTSUNNY   37  19  48 VRB5      30.46F
CHILLICOTHE      N/A     37  18  46 S6        30.48F
KIRKSVILLE     SUNNY     35  12  38 VRB6      30.45F

$$
MOZ066>068-077>081-088>096-101>105-302200-
...SOUTHWEST MISSOURI...

CITY           SKY/WX    TMP DP  RH WIND       PRES   REMARKS
SPRINGFIELD    SUNNY     46  12  25 CALM      30.42F
JOPLIN         SUNNY     47  21  35 SE5       30.44F

$$
MOZ032>034-039>042-045>050-055>058-069>072-302200-
...CENTRAL MISSOURI...

CITY           SKY/WX    TMP DP  RH WIND       PRES   REMARKS
COLUMBIA       SUNNY     38  17  42 SW3       30.46F
JEFFERSON CITY SUNNY     40  16  37 CALM      30.48F
ROLLA          SUNNY     41  17  38 VRB3      30.43F
SEDALIA        PTSUNNY   41  21  44 CALM      30.47F
OSAGE BEACH    MOSUNNY   43  19  39 N3        30.46S

$$
MOZ051-052-059>065-302200-
...EAST CENTRAL MISSOURI...

CITY           SKY/WX    TMP DP  RH WIND       PRES   REMARKS
ST LOUIS INTL  PTSUNNY   39  16  39 CALM      30.49S
SPIRIT OF STL  SUNNY     39  15  37 CALM      30.48F
ST CHARLES     SUNNY     38  19  46 W5        30.49F

$$
MOZ072>076-082>087-097>100-106>115-302200-
...SOUTH CENTRAL AND SOUTHEAST MISSOURI...

CITY           SKY/WX    TMP DP  RH WIND       PRES   REMARKS
CAPE GIRARDEAU SUNNY     42  22  44 CALM      30.47F
FARMINGTON     SUNNY     41  18  38 N5        30.49S
POPLAR BLUFF   SUNNY     42  24  49 E8        30.46F
WEST PLAINS    SUNNY     47  14  26 N5        30.43F

$$


USA.gov is the U.S. government's official web portal to all federal, state and local government web resources and services.